Location: Leiter
(44.7178°N, 106.2687°W)
Time: 10:32:19
(UTC+00:00)

CUBESAT XI-V - Pass Details

Date: 08 July 2022
Orbit: 668 x 690 km, 98.1° (Epoch: 14 August)

Event Time Altitude Azimuth Distance (km) Brightness Sun altitude
Exits shadow 08:47:54 34° 166° (SSE) 1,093 ? -19.2°
Maximum altitude 08:49:53 89° 260° (W) 677 ? -19.1°
Drops below altitude 10° 08:54:29 10° 347° (NNW) 2,105 ? -18.7°
Sets 08:56:43 0° 347° (NNW) 3,022 ? -18.6°
